STARLINK-3564 (52302 NORAD) Tracking and Keplerian Element Data
This shows tracking and keplerian element data for the satellite.
Feedback or suggestion? Click here.
Element | Value |
Catalog | 52302 |
Name | STARLINK-3564 |
Epoch Orbit | 130 |
Epoch Day | 167.08334491 |
Epoch Year | 2022 |
RAAN | 100.6317 |
Inclination | 53.2157 |
Eccentricity | 0.0003906 |
Argument of Perigee | 6.5046 |
Mean Anonmoly | 304.1769 |
Mean Motion | 15.73231542 |
Decay Rate | 0.00038638 |
L1 | 1 52302U 22041AT 22167.08334491 .00038638 00000+0 27800-3 0 9998 |
L2 | 2 52302 53.2157 100.6317 0003906 6.5046 304.1769 15.73231542 1301 |
Live tracking and technical data element details for STARLINK-3564 (NORAD 52302). STARLINK-3564 can be tracked NOW for your location showing map with azimuth and elevation plus other details from your city location.
Track the satellite on the map from your city or location and see movement details for azimuth, elevation, latitude, longitude, range, height, and movement on the map or in text.
IsCatalogInMostPopularTable: catalog: 52302, numindb: 2
Update: records affected: 1
GetName: 52302 STARLINK-3564
Hit Count: updated at: Sat, 25 Jun 2022 04:12:32 GMT